Regional Weather Roundup
Issued by NWS

Home | Current Version | Previous Version | Text Only | Print | Product List | Glossary Off
Versions: 1 2 3 4 5 6 7 8 9 10 11 12 13 14 15 16 17 18 19 20 21 22 23 24 25 26 27 28 29 30 31 32 33 34 35 36 37 38 39 40 41 42 43 44 45 46 47 48 49 50

000
ASUS43 KFSD 300410
RWRSD

WEATHER ROUNDUP FOR SOUTH DAKOTA
NATIONAL WEATHER SERVICE SIOUX FALLS SD
1100 PM CDT FRI JUL 29 2016

NOTE: "FAIR" INDICATES FEW OR NO CLOUDS BELOW 12,000 FEET WITH NO
SIGNIFICANT WEATHER AND/OR OBSTRUCTIONS TO VISIBILITY.


SDZ001>005-009-010-012>017-300500-
NORTHWEST AND NORTH CENTRAL SOUTH DAKOTA

CITY           SKY/WX    TMP DP  RH WIND       PRES   REMARKS
BUFFALO          N/A     72  54  53 SE7       29.94S
FAITH            N/A     68  56  65 SE13      29.99S
MOBRIDGE       PTCLDY    73  55  53 SE10      29.96S
$$

SDZ012>016-024>037-041>051-057-063-072>074-300500-
SOUTHWEST AND SOUTH CENTRAL SOUTH DAKOTA

CITY           SKY/WX    TMP DP  RH WIND       PRES   REMARKS
RAPID CTY ARPT CLEAR     61  55  81 CALM      30.02R
PIERRE         CLEAR     70  57  63 SE10      29.98S
CUSTER         CLEAR     59  53  80 CALM      30.17R
ELLSWORTH AFB  CLEAR     68  57  66 S6        30.02R
PHILIP         CLEAR     67  62  84 E5        29.98S
PINE RIDGE     CLEAR     64  59  83 W3        30.02S
WINNER         FAIR      67  60  78 SE9       30.02S
$$

SDZ004>011-016>023-039-040-300500-
NORTHEAST SOUTH DAKOTA

CITY           SKY/WX    TMP DP  RH WIND       PRES   REMARKS
ABERDEEN       CLOUDY    67  61  81 SE7       30.00S
WATERTOWN      CLEAR     68  57  68 SE8       30.05S
BROOKINGS      CLEAR     65  57  75 SE7       30.06S
SISSETON         N/A     67  62  84 S5        30.02S
$$

SDZ017-020-022-023-036>040-048>070-300500-
SOUTHEAST SOUTH DAKOTA

CITY           SKY/WX    TMP DP  RH WIND       PRES   REMARKS
SIOUX FALLS    PTCLDY    66  55  67 E5        30.05S
HURON          PTCLDY    69  55  60 SE10      30.02R
CHAMBERLAIN    CLEAR     65  60  82 SE6       30.03R
MITCHELL       CLEAR     66  56  70 SE7       30.04R
YANKTON        CLOUDY    66  55  68 E5        30.04R
$$

ABBREVIATIONS USED IN REMARKS
   TC - TEMPERATURE IN CELSIUS
  WCI - WIND CHILL INDEX
   HX - HEAT INDEX
  VSB - VISIBILITY





USA.gov is the U.S. government's official web portal to all federal, state and local government web resources and services.